Date,TemperatureHighF,TemperatureAvgF,TemperatureLowF,DewpointHighF,DewpointAvgF,DewpointLowF,HumidityHigh,HumidityAvg,HumidityLow,PressureMaxIn,PressureMinIn,WindSpeedMaxMPH,WindSpeedAvgMPH,GustSpeedMaxMPH,PrecipitationSumIn
2013-4-1,60.5,47.4,41.4,35.6,26.4,21.5,56,45,29,29.59,29.30,8,1,8,0.00
2013-4-2,60.3,43.2,33.5,26.6,20.4,16.1,57,41,25,29.70,29.59,4,0,4,0.00
2013-4-3,60.8,46.5,34.7,29.3,24.2,19.8,56,42,28,29.74,29.60,6,1,6,0.00
2013-4-4,64.8,50.5,37.6,30.8,26.0,22.5,57,40,25,29.59,29.38,5,0,5,0.00
2013-4-5,69.3,54.6,41.9,38.7,32.6,26.6,60,45,30,29.53,29.39,5,1,5,0.00
2013-4-6,74.0,63.6,52.2,42.7,37.8,32.6,56,40,25,29.39,29.07,8,2,8,0.00
2013-4-7,78.5,67.5,56.9,57.2,48.8,42.0,75,53,34,29.28,29.13,6,1,6,0.09
2013-4-8,79.0,69.9,61.9,60.1,56.2,52.8,78,63,46,29.24,29.08,7,2,7,0.01
2013-4-9,79.2,71.2,65.3,61.8,58.7,55.5,73,65,54,29.25,29.17,9,2,9,0.00
2013-4-10,79.9,69.4,62.1,67.6,62.0,57.5,87,78,59,29.20,28.94,8,1,8,1.17
2013-4-11,62.5,49.1,42.7,58.7,41.1,30.4,88,74,61,29.12,29.01,4,1,4,0.22
2013-4-12,45.7,43.2,38.9,33.0,31.3,29.1,70,63,56,29.37,29.09,6,1,6,0.01
2013-4-13,66.6,51.5,36.9,42.4,35.6,30.1,78,57,39,29.42,29.25,6,1,6,0.00
2013-4-14,78.1,63.3,49.7,53.8,46.3,40.5,72,56,30,29.25,28.97,9,2,9,0.00
2013-4-15,72.9,64.3,55.8,64.5,55.4,49.3,87,73,62,29.28,29.09,4,0,4,0.57
2013-4-16,56.2,50.0,48.6,50.0,45.7,44.1,88,85,79,29.50,29.23,5,0,5,0.57
2013-4-17,78.8,62.8,50.0,67.5,56.4,45.9,92,81,62,29.47,29.05,8,0,8,0.00
2013-4-18,73.1,58.8,45.5,65.7,53.8,36.6,93,83,71,29.14,28.93,6,0,6,2.38
2013-4-19,53.6,46.8,42.5,36.8,32.8,29.4,71,59,44,29.42,29.11,5,1,5,0.00
2013-4-20,69.5,49.0,37.8,39.0,30.8,26.5,73,51,33,29.68,29.41,3,0,3,0.02
2013-4-21,62.1,53.8,45.0,41.0,35.9,30.7,59,51,44,29.75,29.59,8,2,8,0.00
2013-4-22,84.8,65.5,45.5,48.2,42.0,34.6,66,44,25,29.57,29.32,9,2,9,0.00
2013-4-23,63.0,52.9,40.3,56.5,45.9,37.4,91,78,57,29.39,29.24,7,0,7,0.02
2013-4-24,70.4,46.8,37.8,38.1,33.9,28.3,90,65,24,29.60,29.35,7,1,7,0.00
2013-4-25,88.2,54.2,40.1,44.2,33.3,26.8,70,49,19,29.70,29.57,5,1,5,0.00
2013-4-26,67.0,54.5,49.3,49.8,42.3,34.7,76,64,50,29.72,29.60,6,1,6,0.00
2013-4-27,55.1,52.5,50.4,51.8,48.4,43.8,92,86,76,29.64,29.29,6,0,6,0.28
2013-4-28,58.9,54.9,50.0,52.6,50.2,45.9,93,85,74,29.33,29.25,4,0,4,0.01
2013-4-29,97.0,66.3,49.3,65.3,55.1,46.4,92,71,33,29.29,29.14,7,1,7,0.00
2013-4-30,98.8,74.5,60.8,62.6,57.1,48.6,84,59,23,29.31,29.16,8,1,8,0.00